Time,TemperatureF,DewpointF,PressureIn,WindDirection,WindDirectionDegrees,WindSpeedMPH,WindSpeedGustMPH,Humidity,HourlyPrecipIn,Conditions,Clouds,dailyrainin,SoftwareType,DateUTC
2013-02-17 00:14:00,59.0,28.0,30.06,WSW,241,0.0,-999.0,31,-99.99,,,0.00,weatherlink.com 1.10,2013-02-17 08:14:00,
2013-02-17 00:29:00,59.0,30.0,30.06,NNE,22,0.0,-999.0,34,-99.99,,,0.00,weatherlink.com 1.10,2013-02-17 08:29:00,
2013-02-17 00:44:00,59.0,33.0,30.05,NNE,18,3.0,-999.0,37,-99.99,,,0.00,weatherlink.com 1.10,2013-02-17 08:44:00,
2013-02-17 00:59:00,59.0,33.0,30.05,NNW,338,0.0,-999.0,37,-99.99,,,0.00,weatherlink.com 1.10,2013-02-17 08:59:00,
2013-02-17 01:14:00,59.0,32.0,30.05,NE,34,0.0,-999.0,36,-99.99,,,0.00,weatherlink.com 1.10,2013-02-17 09:14:00,
2013-02-17 01:29:00,58.6,30.0,30.05,NNE,13,0.0,-999.0,34,-99.99,,,0.00,weatherlink.com 1.10,2013-02-17 09:29:00,
2013-02-17 01:44:00,58.9,30.0,30.04,NE,53,7.0,-999.0,34,-99.99,,,0.00,weatherlink.com 1.10,2013-02-17 09:44:00,
2013-02-17 01:59:00,58.9,30.0,30.04,NE,52,5.0,-999.0,34,-99.99,,,0.00,weatherlink.com 1.10,2013-02-17 09:59:00,
2013-02-17 02:14:00,59.0,30.0,30.03,NNE,24,5.0,-999.0,34,-99.99,,,0.00,weatherlink.com 1.10,2013-02-17 10:14:00,
2013-02-17 02:29:00,58.5,29.0,30.03,ENE,59,5.0,-999.0,33,-99.99,,,0.00,weatherlink.com 1.10,2013-02-17 10:29:00,
2013-02-17 02:44:00,59.0,28.0,30.03,NE,55,0.0,-999.0,31,-99.99,,,0.00,weatherlink.com 1.10,2013-02-17 10:44:00,
2013-02-17 02:59:00,58.8,27.0,30.03,NE,44,4.0,-999.0,30,-99.99,,,0.00,weatherlink.com 1.10,2013-02-17 10:59:00,
2013-02-17 03:13:00,58.9,27.0,30.02,ENE,62,0.0,-999.0,29,-99.99,,,0.00,weatherlink.com 1.10,2013-02-17 11:13:00,
2013-02-17 03:28:00,58.4,26.0,30.02,NW,318,1.0,-999.0,29,-99.99,,,0.00,weatherlink.com 1.10,2013-02-17 11:28:00,
2013-02-17 03:43:00,58.1,26.0,30.02,NNE,28,0.0,-999.0,29,-99.99,,,0.00,weatherlink.com 1.10,2013-02-17 11:43:00,
2013-02-17 03:58:00,57.9,26.0,30.01,ENE,74,0.0,-999.0,29,-99.99,,,0.00,weatherlink.com 1.10,2013-02-17 11:58:00,
2013-02-17 04:13:00,57.6,25.0,30.01,NNE,24,0.0,-999.0,29,-99.99,,,0.00,weatherlink.com 1.10,2013-02-17 12:13:00,
2013-02-17 04:28:00,57.4,25.0,30.01,NNE,30,0.0,-999.0,29,-99.99,,,0.00,weatherlink.com 1.10,2013-02-17 12:28:00,
2013-02-17 04:43:00,56.9,25.0,30.01,ENE,68,0.0,-999.0,29,-99.99,,,0.00,weatherlink.com 1.10,2013-02-17 12:43:00,
2013-02-17 04:58:00,56.8,26.0,30.01,ENE,59,0.0,-999.0,30,-99.99,,,0.00,weatherlink.com 1.10,2013-02-17 12:58:00,
2013-02-17 05:13:00,57.4,26.0,30.01,NE,50,0.0,-999.0,30,-99.99,,,0.00,weatherlink.com 1.10,2013-02-17 13:13:00,
2013-02-17 05:28:00,56.9,26.0,30.01,NNE,30,4.0,-999.0,30,-99.99,,,0.00,weatherlink.com 1.10,2013-02-17 13:28:00,
2013-02-17 05:43:00,57.3,25.0,30.01,NE,53,0.0,-999.0,29,-99.99,,,0.00,weatherlink.com 1.10,2013-02-17 13:43:00,
2013-02-17 05:58:00,57.1,25.0,30.01,NNE,33,0.0,-999.0,29,-99.99,,,0.00,weatherlink.com 1.10,2013-02-17 13:58:00,
2013-02-17 06:13:00,56.1,26.0,30.02,SE,126,0.0,-999.0,31,-99.99,,,0.00,weatherlink.com 1.10,2013-02-17 14:13:00,
2013-02-17 06:28:00,55.4,24.0,30.01,ESE,111,0.0,-999.0,30,-99.99,,,0.00,weatherlink.com 1.10,2013-02-17 14:28:00,
2013-02-17 06:43:00,55.3,24.0,30.01,NE,52,1.0,-999.0,30,-99.99,,,0.00,weatherlink.com 1.10,2013-02-17 14:43:00,
2013-02-17 06:58:00,55.8,25.0,30.02,North,360,0.0,-999.0,31,-99.99,,,0.00,weatherlink.com 1.10,2013-02-17 14:58:00,
2013-02-17 07:13:00,56.2,25.0,30.02,NE,46,7.0,-999.0,30,-99.99,,,0.00,weatherlink.com 1.10,2013-02-17 15:13:00,
2013-02-17 07:28:00,56.0,26.0,30.02,ESE,117,0.0,-999.0,31,-99.99,,,0.00,weatherlink.com 1.10,2013-02-17 15:28:00,
2013-02-17 07:43:00,54.9,26.0,30.03,WSW,245,0.0,-999.0,33,-99.99,,,0.00,weatherlink.com 1.10,2013-02-17 15:43:00,
2013-02-17 07:58:00,56.7,28.0,30.03,ENE,63,3.0,-999.0,34,-99.99,,,0.00,weatherlink.com 1.10,2013-02-17 15:58:00,
2013-02-17 08:13:00,56.5,29.0,30.03,ESE,108,0.0,-999.0,35,-99.99,,,0.00,weatherlink.com 1.10,2013-02-17 16:13:00,
2013-02-17 08:28:00,58.7,31.0,30.04,East,84,0.0,-999.0,35,-99.99,,,0.00,weatherlink.com 1.10,2013-02-17 16:28:00,
2013-02-17 08:43:00,59.0,29.0,30.03,East,96,0.0,-999.0,32,-99.99,,,0.00,weatherlink.com 1.10,2013-02-17 16:43:00,
2013-02-17 08:58:00,58.6,33.0,30.04,East,96,0.0,-999.0,38,-99.99,,,0.00,weatherlink.com 1.10,2013-02-17 16:58:00,
2013-02-17 09:13:00,59.0,30.0,30.04,East,98,0.0,-999.0,34,-99.99,,,0.00,weatherlink.com 1.10,2013-02-17 17:13:00,
2013-02-17 09:28:00,59.5,32.0,30.04,ESE,115,0.0,-999.0,35,-99.99,,,0.00,weatherlink.com 1.10,2013-02-17 17:28:00,
2013-02-17 09:43:00,59.4,34.0,30.04,ESE,121,0.0,-999.0,38,-99.99,,,0.00,weatherlink.com 1.10,2013-02-17 17:43:00,
2013-02-17 09:58:00,59.1,33.0,30.04,SE,140,0.0,-999.0,38,-99.99,,,0.00,weatherlink.com 1.10,2013-02-17 17:58:00,
2013-02-17 10:13:00,60.2,34.0,30.04,SSE,165,0.0,-999.0,37,-99.99,,,0.00,weatherlink.com 1.10,2013-02-17 18:13:00,
2013-02-17 10:28:00,59.7,32.0,30.04,SW,233,0.0,-999.0,35,-99.99,,,0.00,weatherlink.com 1.10,2013-02-17 18:28:00,
2013-02-17 10:43:00,59.7,34.0,30.04,SW,234,0.0,-999.0,38,-99.99,,,0.00,weatherlink.com 1.10,2013-02-17 18:43:00,
2013-02-17 10:58:00,59.8,32.0,30.04,SW,234,0.0,-999.0,35,-99.99,,,0.00,weatherlink.com 1.10,2013-02-17 18:58:00,
2013-02-17 11:13:00,59.7,40.0,30.04,SW,233,0.0,-999.0,48,-99.99,,,0.00,weatherlink.com 1.10,2013-02-17 19:13:00,
2013-02-17 11:28:00,59.6,38.0,30.04,NW,304,0.0,-999.0,45,-99.99,,,0.00,weatherlink.com 1.10,2013-02-17 19:28:00,
2013-02-17 11:43:00,59.3,37.0,30.03,WNW,302,0.0,-999.0,43,-99.99,,,0.00,weatherlink.com 1.10,2013-02-17 19:43:00,
2013-02-17 11:58:00,58.3,46.0,30.03,SE,137,0.0,-999.0,63,-99.99,,,0.00,weatherlink.com 1.10,2013-02-17 19:58:00,
2013-02-17 12:13:00,57.2,46.0,30.03,SE,130,0.0,-999.0,66,-99.99,,,0.00,weatherlink.com 1.10,2013-02-17 20:13:00,
2013-02-17 12:28:00,55.9,45.0,30.02,ESE,116,0.0,-999.0,67,-99.99,,,0.00,weatherlink.com 1.10,2013-02-17 20:28:00,
2013-02-17 12:43:00,54.3,46.0,30.01,ESE,121,1.0,-999.0,73,-99.99,,,0.00,weatherlink.com 1.10,2013-02-17 20:43:00,
2013-02-17 12:58:00,55.9,45.0,30.01,WSW,248,1.0,-999.0,68,-99.99,,,0.00,weatherlink.com 1.10,2013-02-17 20:58:00,
2013-02-17 13:13:00,54.7,46.0,30.00,WSW,242,1.0,-999.0,72,-99.99,,,0.00,weatherlink.com 1.10,2013-02-17 21:13:00,
2013-02-17 13:28:00,55.1,45.0,30.00,SSE,161,0.0,-999.0,68,-99.99,,,0.00,weatherlink.com 1.10,2013-02-17 21:28:00,
2013-02-17 13:43:00,53.3,44.0,30.00,South,186,0.0,-999.0,71,-99.99,,,0.00,weatherlink.com 1.10,2013-02-17 21:43:00,
2013-02-17 13:58:00,52.6,46.0,30.00,South,169,0.0,-999.0,77,-99.99,,,0.00,weatherlink.com 1.10,2013-02-17 21:58:00,
2013-02-17 14:13:00,51.1,44.0,30.00,WSW,249,0.0,-999.0,77,-99.99,,,0.00,weatherlink.com 1.10,2013-02-17 22:13:00,
2013-02-17 14:28:00,52.4,46.0,29.99,SE,134,0.0,-999.0,78,-99.99,,,0.00,weatherlink.com 1.10,2013-02-17 22:28:00,
2013-02-17 14:43:00,51.9,45.0,29.99,ESE,123,0.0,-999.0,76,-99.99,,,0.00,weatherlink.com 1.10,2013-02-17 22:43:00,
2013-02-17 14:58:00,52.8,45.0,29.99,SSW,206,0.0,-999.0,75,-99.99,,,0.00,weatherlink.com 1.10,2013-02-17 22:58:00,
2013-02-17 15:13:00,55.4,46.0,29.99,WSW,252,0.0,-999.0,72,-99.99,,,0.00,weatherlink.com 1.10,2013-02-17 23:13:00,
2013-02-17 15:28:00,55.7,47.0,29.98,East,92,0.0,-999.0,72,-99.99,,,0.00,weatherlink.com 1.10,2013-02-17 23:28:00,
2013-02-17 15:43:00,52.6,45.0,29.99,East,87,0.0,-999.0,76,-99.99,,,0.00,weatherlink.com 1.10,2013-02-17 23:43:00,
2013-02-17 15:58:00,51.7,44.0,29.99,East,100,0.0,-999.0,76,-99.99,,,0.00,weatherlink.com 1.10,2013-02-17 23:58:00,
2013-02-17 16:13:00,51.5,45.0,29.98,ESE,120,0.0,-999.0,77,-99.99,,,0.00,weatherlink.com 1.10,2013-02-18 00:13:00,
2013-02-17 16:28:00,49.4,44.0,29.98,SE,126,0.0,-999.0,80,-99.99,,,0.00,weatherlink.com 1.10,2013-02-18 00:28:00,
2013-02-17 16:43:00,49.0,44.0,29.99,SE,126,0.0,-999.0,82,-99.99,,,0.00,weatherlink.com 1.10,2013-02-18 00:43:00,
2013-02-17 16:58:00,50.5,45.0,29.99,SE,145,0.0,-999.0,82,-99.99,,,0.00,weatherlink.com 1.10,2013-02-18 00:58:00,
2013-02-17 17:13:00,50.8,45.0,29.98,SE,146,0.0,-999.0,79,-99.99,,,0.00,weatherlink.com 1.10,2013-02-18 01:13:00,
2013-02-17 17:28:00,50.8,44.0,29.98,ESE,121,0.0,-999.0,77,-99.99,,,0.00,weatherlink.com 1.10,2013-02-18 01:28:00,
2013-02-17 17:43:00,50.7,41.0,29.98,ESE,121,0.0,-999.0,70,-99.99,,,0.00,weatherlink.com 1.10,2013-02-18 01:43:00,
2013-02-17 17:58:00,50.6,40.0,29.98,ESE,121,0.0,-999.0,68,-99.99,,,0.00,weatherlink.com 1.10,2013-02-18 01:58:00,
2013-02-17 18:13:00,50.1,40.0,29.99,ESE,121,0.0,-999.0,69,-99.99,,,0.00,weatherlink.com 1.10,2013-02-18 02:13:00,
2013-02-17 18:28:00,49.2,40.0,29.99,East,101,0.0,-999.0,71,-99.99,,,0.00,weatherlink.com 1.10,2013-02-18 02:28:00,
2013-02-17 18:43:00,48.8,38.0,29.99,NE,55,2.0,-999.0,67,-99.99,,,0.00,weatherlink.com 1.10,2013-02-18 02:43:00,
2013-02-17 18:58:00,48.6,34.0,30.00,NE,54,0.0,-999.0,57,-99.99,,,0.00,weatherlink.com 1.10,2013-02-18 02:58:00,
2013-02-17 19:13:00,49.4,35.0,30.00,NE,53,0.0,-999.0,58,-99.99,,,0.00,weatherlink.com 1.10,2013-02-18 03:13:00,
2013-02-17 19:28:00,50.1,35.0,30.00,NE,53,0.0,-999.0,56,-99.99,,,0.00,weatherlink.com 1.10,2013-02-18 03:28:00,
2013-02-17 19:43:00,49.2,37.0,30.00,NE,54,0.0,-999.0,63,-99.99,,,0.00,weatherlink.com 1.10,2013-02-18 03:43:00,
2013-02-17 19:58:00,48.1,37.0,30.00,NE,54,0.0,-999.0,66,-99.99,,,0.00,weatherlink.com 1.10,2013-02-18 03:58:00,
2013-02-17 20:13:00,47.8,36.0,30.01,NE,54,0.0,-999.0,63,-99.99,,,0.00,weatherlink.com 1.10,2013-02-18 04:13:00,
2013-02-17 20:28:00,47.9,28.0,30.01,NE,54,0.0,-999.0,46,-99.99,,,0.00,weatherlink.com 1.10,2013-02-18 04:28:00,
2013-02-17 20:43:00,48.8,32.0,30.01,NE,53,0.0,-999.0,53,-99.99,,,0.00,weatherlink.com 1.10,2013-02-18 04:43:00,
2013-02-17 20:58:00,48.5,34.0,30.01,NE,53,0.0,-999.0,58,-99.99,,,0.00,weatherlink.com 1.10,2013-02-18 04:58:00,
2013-02-17 21:13:00,47.2,34.0,30.02,NE,53,0.0,-999.0,61,-99.99,,,0.00,weatherlink.com 1.10,2013-02-18 05:13:00,
2013-02-17 21:28:00,46.7,35.0,30.02,NE,53,0.0,-999.0,64,-99.99,,,0.00,weatherlink.com 1.10,2013-02-18 05:28:00,
2013-02-17 21:43:00,46.5,35.0,30.03,NE,53,0.0,-999.0,64,-99.99,,,0.00,weatherlink.com 1.10,2013-02-18 05:43:00,
2013-02-17 21:58:00,46.4,37.0,30.03,NE,53,0.0,-999.0,70,-99.99,,,0.00,weatherlink.com 1.10,2013-02-18 05:58:00,
2013-02-17 22:28:00,44.4,32.0,30.02,NE,36,0.0,-999.0,63,-99.99,,,0.00,weatherlink.com 1.10,2013-02-18 06:28:00,
2013-02-17 22:43:00,45.8,24.0,30.03,NE,36,0.0,-999.0,43,-99.99,,,0.00,weatherlink.com 1.10,2013-02-18 06:43:00,
2013-02-17 22:58:00,46.5,35.0,30.04,NE,36,0.0,-999.0,64,-99.99,,,0.00,weatherlink.com 1.10,2013-02-18 06:58:00,
2013-02-17 23:13:00,46.2,35.0,30.04,NE,36,0.0,-999.0,66,-99.99,,,0.00,weatherlink.com 1.10,2013-02-18 07:13:00,
2013-02-17 23:28:00,46.0,34.0,30.04,NE,36,0.0,-999.0,63,-99.99,,,0.00,weatherlink.com 1.10,2013-02-18 07:28:00,
2013-02-17 23:43:00,45.4,34.0,30.04,NE,36,0.0,-999.0,65,-99.99,,,0.00,weatherlink.com 1.10,2013-02-18 07:43:00,
2013-02-17 23:58:00,45.8,34.0,30.05,NE,36,0.0,-999.0,63,-99.99,,,0.00,weatherlink.com 1.10,2013-02-18 07:58:00,